"America/Chicago Time","Lifetime Energy (kWh)","Power (W)","AC Volts RMS (V) ","AC Amps RMS (mA)","Grid Frequency (Hz)","Inverter Temperature (C)"
"09/02/12 10:26:03","222.234","163.8","217.66","747","60.03","32"
"09/02/12 10:31:02","222.2469","165.1","217.42","754","60.0","33"
"09/02/12 10:36:02","222.2598","168.1","217.27","774","60.03","33"
"09/02/12 10:41:02","222.273","169.2","216.86","779","60.0","34"
"09/02/12 10:46:02","222.2864","173.3","217.11","792","60.0","34"
"09/02/12 10:51:03","222.3","174.7","217.34","793","60.03","35"
"09/02/12 10:56:02","222.3136","177.2","217.21","805","60.03","35"
"09/02/12 11:01:02","222.3275","178.6","216.84","816","60.03","35"
"09/02/12 11:06:02","222.3416","181.9","216.95","829","60.03","36"
"09/02/12 11:11:02","222.3558","183.8","217.35","835","60.03","36"
"09/02/12 11:16:03","222.3701","182.0","217.89","831","60.0","36"
"09/02/12 11:21:03","222.3841","175.6","217.64","802","60.07","36"
"09/02/12 11:26:01","222.3979","180.8","217.54","818","60.03","36"
"09/02/12 11:31:02","222.4122","188.0","217.39","851","60.03","37"
"09/02/12 11:36:02","222.4268","184.5","217.42","826","60.03","37"
"09/02/12 11:41:03","222.4414","190.2","217.81","862","60.03","37"
"09/02/12 11:46:03","222.4558","182.6","218.1","820","60.03","37"
"09/02/12 11:51:03","222.4697","178.9","217.53","817","60.03","37"
"09/02/12 11:56:01","222.4828","168.4","217.79","768","60.03","36"
"09/02/12 12:01:01","222.4963","166.4","217.34","767","60.03","36"
"09/02/12 12:06:03","222.5085","151.4","216.25","696","60.0","36"
"09/02/12 12:11:02","222.5206","161.5","216.51","743","60.03","36"
"09/02/12 12:16:02","222.5339","192.0","216.89","869","60.03","36"
"09/02/12 12:21:02","222.548","176.9","217.03","814","60.03","37"
"09/02/12 12:26:01","222.562","181.1","217.57","822","59.96","37"
"09/02/12 12:31:03","222.5768","182.4","217.56","829","60.0","38"
"09/02/12 12:36:02","222.5913","183.0","217.89","835","60.03","38"
"09/02/12 12:41:02","222.6029","107.9","215.39","511","60.03","37"
"09/02/12 12:46:02","222.6133","184.3","216.41","839","60.0","36"
"09/02/12 12:51:02","222.6273","177.9","216.8","808","60.0","37"
"09/02/12 12:56:02","222.6414","187.0","217.41","852","60.0","37"
"09/02/12 13:01:01","222.6559","188.6","217.29","859","60.03","38"
"09/02/12 13:06:02","222.6704","189.3","216.11","864","60.0","38"
"09/02/12 13:11:01","222.6849","184.7","217.08","839","60.03","38"
"09/02/12 13:16:03","222.6998","192.4","217.5","876","60.03","39"
"09/02/12 13:21:03","222.7146","189.1","217.3","861","60.03","39"
"09/02/12 13:26:02","222.7292","186.7","217.13","849","60.03","40"
"09/02/12 13:31:02","222.7437","185.5","217.2","845","60.03","40"
"09/02/12 13:36:01","222.758","182.1","217.04","832","60.0","40"
"09/02/12 13:41:02","222.772","175.0","217.01","797","60.0","40"
"09/02/12 13:46:03","222.7849","152.0","216.71","702","60.03","39"
"09/02/12 13:51:02","222.797","170.0","217.16","778","60.03","39"
"09/02/12 13:56:01","222.8105","176.9","217.92","804","60.0","39"
"09/02/12 14:01:02","222.8246","180.1","217.19","822","60.03","39"
"09/02/12 14:06:01","222.8384","175.6","216.54","805","60.03","39"
"09/02/12 14:11:03","222.852","169.4","216.83","779","60.03","39"
"09/02/12 14:16:02","222.8646","160.5","216.83","739","60.03","39"
"09/02/12 14:21:03","222.8775","169.9","217.64","771","60.03","39"
"09/02/12 14:26:03","222.8907","169.6","217.1","778","60.0","39"
"09/02/12 14:31:02","222.9037","162.5","216.67","751","60.0","39"
"09/02/12 14:36:03","222.9162","157.8","216.92","721","60.0","39"
"09/02/12 14:41:03","222.928","154.6","216.4","720","60.03","39"
"09/02/12 14:46:02","222.9404","159.0","216.2","732","60.03","39"
"09/02/12 14:51:02","222.9522","134.1","215.81","627","60.0","38"
"09/02/12 14:56:03","222.9632","159.2","216.41","734","60.03","38"
"09/02/12 15:01:03","222.9754","154.3","215.85","719","60.07","38"
"09/02/12 15:06:01","222.9872","149.4","216.59","689","60.03","38"
"09/02/12 15:11:03","222.9989","149.1","215.49","692","60.0","38"
"09/02/12 15:16:01","223.0103","146.5","216.16","676","60.0","38"
"09/02/12 15:21:02","223.0217","142.8","216.14","665","60.03","38"
"09/02/12 15:26:01","223.0327","141.7","215.99","656","60.03","38"
"09/02/12 15:31:02","223.0436","137.0","215.82","635","60.03","37"
"09/02/12 15:36:01","223.054","133.9","217.0","624","60.0","37"
"09/02/12 15:41:02","223.0644","130.2","216.64","612","60.03","37"
"09/02/12 15:46:02","223.0743","128.4","216.14","601","60.03","36"
"09/02/12 15:51:01","223.0842","124.4","215.61","587","60.0","36"
"09/02/12 15:56:02","223.0937","117.9","215.24","552","60.0","36"
"09/02/12 16:01:03","223.1023","97.0","215.32","468","60.03","36"
"09/02/12 16:06:01","223.1101","100.1","214.67","479","60.03","35"
"09/02/12 16:11:03","223.1184","105.6","215.08","507","60.0","35"
"09/02/12 16:16:02","223.1264","96.8","215.29","466","60.03","35"
"09/02/12 16:21:02","223.1327","68.6","215.13","344","60.0","34"
"09/02/12 16:26:03","223.1356","35.1","214.09","74","60.03","33"
"09/02/12 16:31:03","223.1376","23.9","214.22","308","60.0","32"
"09/02/12 16:36:01","223.1403","40.9","214.21","91","60.0","32"
"09/02/12 16:41:02","223.1429","37.0","213.6","133","60.07","31"
"09/02/12 16:46:01","223.1455","30.4","214.34","144","60.03","30"
"09/02/12 16:51:02","223.1481","30.0","214.28","84","60.03","30"
"09/02/12 16:56:01","223.1511","48.5","213.87","350","60.03","30"
"09/02/12 17:01:02","223.1552","58.5","214.58","208","60.03","30"
"09/02/12 17:06:02","223.1619","84.6","215.57","415","60.0","30"
"09/02/12 17:11:03","223.1682","77.6","215.66","382","60.03","31"
"09/02/12 17:16:03","223.1738","69.3","215.14","348","60.03","31"
"09/02/12 17:21:03","223.1786","47.5","214.24","426","60.03","31"
"09/02/12 17:26:02","223.1825","57.7","214.33","80","60.0","30"
"09/02/12 17:31:02","223.1861","39.0","213.37","269","60.03","30"
"09/02/12 17:36:01","223.1894","45.5","213.33","224","60.03","30"
"09/02/12 17:41:01","223.1923","32.9","213.89","223","60.03","30"
"09/02/12 17:46:01","223.1948","27.5","214.02","249","60.0","29"
"09/02/12 17:51:03","223.1971","30.9","214.06","44","60.03","29"
"09/02/12 17:56:02","223.199","33.1","213.8","41","60.03","29"
"09/02/12 18:01:02","223.2007","11.1","213.56","26","60.03","29"
"09/02/12 18:06:01","223.202","11.3","213.4","2","60.03","28"
"09/02/12 18:11:02","223.203","6.7","213.53","188","60.0","28"
"09/02/12 18:16:02","223.2037","7.6","214.0","0","60.03","27"
"09/02/12 18:21:03","223.2043","0.0","213.54","0","60.03","27"
"09/02/12 18:26:03","223.2047","13.1","213.21","63","60.03","27"
"09/02/12 18:31:03","223.2051","15.1","213.49","22","60.0","27"
"09/02/12 18:36:03","223.2055","0.0","213.87","116","60.03","26"
"09/02/12 18:41:02","223.206","14.9","213.32","4","60.0","26"
"09/02/12 18:46:02","223.2064","15.8","212.88","4","60.0","26"
"09/02/12 18:51:02","223.207","0.0","212.93","7","60.03","26"
"09/02/12 18:56:02","223.2074","0.0","213.66","0","60.0","25"
"09/03/12 07:33:26","223.2084","8.8","213.98","91","60.03","21"
"09/03/12 07:43:29","223.2089","10.9","213.94","23","60.03","21"
"09/03/12 07:48:26","223.2094","0.0","212.92","0","60.0","22"
"09/03/12 07:53:26","223.2101","11.2","214.35","43","60.03","22"
"09/03/12 07:58:25","223.2111","14.9","213.5","3","60.03","22"
"09/03/12 08:03:26","223.2121","14.6","213.58","53","60.03","22"
"09/03/12 08:08:25","223.2128","11.0","212.84","10","60.0","22"
"09/03/12 08:13:25","223.2141","31.2","214.73","255","60.0","23"
"09/03/12 08:18:25","223.2162","28.9","213.29","52","60.0","23"
"09/03/12 08:23:25","223.2182","26.2","214.17","156","60.0","23"
"09/03/12 08:28:25","223.2208","43.3","213.9","173","60.03","24"
"09/03/12 08:33:25","223.2246","40.8","214.36","115","60.03","24"
"09/03/12 08:38:25","223.2274","33.3","213.16","195","60.0","25"
"09/03/12 08:43:25","223.2314","86.6","214.96","425","60.03","25"
"09/03/12 08:48:25","223.2375","98.5","214.99","474","60.03","26"
"09/03/12 08:53:25","223.2442","44.3","214.33","345","60.03","27"
"09/03/12 08:58:25","223.2477","72.3","214.79","361","60.03","28"
"09/03/12 09:03:25","223.2526","76.3","214.97","376","60.03","28"
"09/03/12 09:08:24","223.2568","55.6","214.27","344","60.03","28"
"09/03/12 09:13:26","223.2598","27.8","213.62","173","60.0","28"
"09/03/12 09:18:26","223.2626","49.8","213.56","226","59.96","28"
"09/03/12 09:23:25","223.2657","31.9","213.34","326","60.0","28"
"09/03/12 09:28:26","223.2684","40.7","213.64","414","60.0","28"
"09/03/12 09:33:26","223.2723","54.6","213.9","382","60.0","28"
"09/03/12 09:38:26","223.2756","56.6","214.77","85","60.0","29"
"09/03/12 09:43:25","223.2796","63.7","214.22","334","60.0","29"
"09/03/12 09:48:25","223.2832","37.7","213.13","175","60.03","29"
"09/03/12 09:53:25","223.2863","39.2","213.39","222","60.0","29"
"09/03/12 09:58:25","223.2888","26.9","213.3","264","60.03","29"
"09/03/12 10:03:26","223.2914","28.1","213.24","77","60.03","29"
"09/03/12 10:08:26","223.2936","35.5","213.19","137","60.0","29"
"09/03/12 10:13:26","223.2956","22.3","213.36","216","60.0","29"
"09/03/12 10:18:26","223.2978","18.4","212.92","86","60.0","29"
"09/03/12 10:23:25","223.3001","40.8","213.9","294","60.03","29"
"09/03/12 10:28:26","223.303","42.7","214.04","248","60.0","29"
"09/03/12 10:33:26","223.3059","30.5","213.85","75","60.0","29"
"09/03/12 10:38:26","223.3088","42.0","214.71","294","60.03","29"
"09/03/12 10:43:25","223.3121","55.3","214.53","369","60.03","30"
"09/03/12 10:48:25","223.3159","44.7","214.07","111","60.03","29"
"09/03/12 10:53:26","223.3198","47.0","216.07","108","60.03","30"
"09/03/12 10:58:26","223.324","57.9","215.7","414","60.03","30"
"09/03/12 11:03:25","223.3316","122.4","217.45","572","60.03","31"
"09/03/12 11:08:26","223.3434","138.8","217.65","644","60.03","32"
"09/03/12 11:13:25","223.354","113.4","216.25","532","60.0","32"
"09/03/12 11:18:26","223.362","68.7","215.21","347","60.03","32"
"09/03/12 11:23:26","223.366","42.4","215.6","287","60.03","32"
"09/03/12 11:28:26","223.3695","40.5","214.84","265","60.03","32"
"09/03/12 11:33:26","223.3729","55.3","214.83","150","60.03","32"
"09/03/12 11:38:25","223.3767","52.9","215.83","238","60.0","31"
"09/03/12 11:43:25","223.3805","47.0","215.86","91","60.03","31"
"09/03/12 11:48:27","223.3847","69.3","214.88","348","60.0","31"
"09/03/12 11:53:26","223.3905","66.5","215.84","336","60.03","31"
"09/03/12 11:58:25","223.3946","47.7","214.48","264","60.0","31"
"09/03/12 12:03:26","223.3984","46.4","214.41","191","60.03","31"
"09/03/12 12:08:25","223.4023","44.1","214.66","197","60.03","31"
"09/03/12 12:13:25","223.406","48.5","214.81","333","60.03","31"
"09/03/12 12:18:25","223.4132","118.3","216.06","555","60.03","31"
"09/03/12 12:23:25","223.4223","81.2","215.3","401","60.03","31"
"09/03/12 12:28:25","223.4288","105.5","214.85","509","60.0","32"
"09/03/12 12:33:26","223.434","68.4","214.86","344","60.0","31"
"09/03/12 12:38:25","223.4409","177.3","217.77","807","60.03","32"
"09/03/12 12:43:26","223.4553","180.5","217.32","822","60.03","32"
"09/03/12 12:48:26","223.4668","195.5","216.88","891","60.0","33"
"09/03/12 12:53:26","223.4791","73.6","215.1","368","60.03","33"
"09/03/12 12:58:25","223.4902","62.3","214.35","317","60.03","34"
"09/03/12 13:03:26","223.5","196.4","216.92","892","60.03","35"
"09/03/12 13:08:26","223.514","195.9","217.67","892","60.03","36"
"09/03/12 13:13:26","223.5276","196.3","217.07","892","60.0","36"
"09/03/12 13:18:25","223.5391","194.7","216.9","888","60.03","36"
"09/03/12 13:23:25","223.5543","195.0","216.48","887","60.0","37"
"09/03/12 13:28:26","223.5695","193.4","216.39","880","60.0","38"
"09/03/12 13:33:25","223.5847","188.5","216.03","863","60.03","38"
"09/03/12 13:38:25","223.5991","165.7","215.85","755","60.03","38"
"09/03/12 13:43:25","223.6137","188.9","217.01","860","60.03","38"
"09/03/12 13:48:25","223.6287","196.1","217.24","892","60.03","39"
"09/03/12 13:53:25","223.6438","187.7","216.76","857","60.0","39"
"09/03/12 13:58:26","223.6589","193.8","217.34","879","60.03","39"
"09/03/12 14:03:26","223.6738","189.1","217.62","858","60.03","39"
"09/03/12 14:08:25","223.6884","185.2","216.93","845","60.03","39"
"09/03/12 14:13:27","223.7028","184.1","217.36","835","60.03","40"
"09/03/12 14:18:26","223.717","183.3","216.35","838","60.0","41"
"09/03/12 14:23:26","223.7306","140.5","216.78","653","60.03","40"
"09/03/12 14:28:26","223.7394","101.5","216.51","486","60.0","39"
"09/03/12 14:33:25","223.7475","96.6","215.15","464","60.03","38"
"09/03/12 14:38:26","223.7568","148.1","216.31","687","60.03","38"
"09/03/12 14:43:26","223.7645","74.3","214.0","369","60.0","37"
"09/03/12 14:48:25","223.7706","91.3","214.73","441","60.03","37"
"09/03/12 14:53:25","223.7766","42.0","213.38","335","60.03","36"
"09/03/12 14:58:25","223.7805","50.4","212.98","190","60.0","35"
"09/03/12 15:03:25","223.7844","47.7","213.69","102","60.03","35"
"09/03/12 15:08:26","223.7887","107.8","215.55","514","60.0","34"
"09/03/12 15:13:26","223.7971","61.6","213.75","306","60.0","34"
"09/03/12 15:18:25","223.8023","156.9","215.48","724","60.0","34"
"09/03/12 15:23:25","223.8139","160.4","216.01","738","60.03","35"
"09/03/12 15:28:26","223.8259","144.4","215.47","674","60.0","36"
"09/03/12 15:33:26","223.8357","144.4","215.05","670","60.03","36"
"09/03/12 15:38:26","223.8463","132.8","214.22","627","60.0","36"
"09/03/12 15:43:26","223.857","133.3","213.89","631","60.03","36"
"09/03/12 15:48:25","223.8671","128.8","215.73","601","60.0","36"
"09/03/12 15:53:26","223.877","124.5","214.98","586","60.0","37"
"09/03/12 15:58:25","223.8865","121.2","214.23","575","60.03","37"
"09/03/12 16:03:26","223.8958","117.9","213.62","564","60.03","36"
"09/03/12 16:08:25","223.9049","114.4","213.86","547","60.03","36"
"09/03/12 16:13:25","223.9136","110.0","213.82","528","60.0","36"
"09/03/12 16:18:25","223.922","106.5","213.76","512","60.03","36"
"09/03/12 16:23:25","223.9302","102.4","212.83","495","60.03","36"
"09/03/12 16:28:25","223.938","98.6","213.44","477","60.0","36"
"09/03/12 16:33:25","223.9454","93.6","213.41","457","60.0","36"
"09/03/12 16:38:26","223.9526","89.3","213.29","438","60.03","35"
"09/03/12 16:43:25","223.9594","84.4","214.36","418","60.0","35"
"09/03/12 16:48:25","223.9658","80.5","213.4","400","60.03","35"
"09/03/12 16:53:25","223.9719","76.5","213.16","377","60.03","35"
"09/03/12 16:58:25","223.9777","71.8","213.77","362","60.0","34"
"09/03/12 17:03:25","223.9831","67.4","213.36","342","60.0","34"
"09/03/12 17:08:26","223.9881","62.8","214.23","320","60.0","34"
"09/03/12 17:13:26","223.9922","45.0","213.39","382","60.0","34"
"09/03/12 17:18:26","223.9961","46.2","213.54","325","60.0","33"
"09/03/12 17:23:26","224.0","45.5","213.25","414","60.0","33"
"09/03/12 17:28:26","224.0036","51.9","212.76","141","60.03","33"
"09/03/12 17:33:25","224.007","44.8","212.83","278","60.0","33"
"09/03/12 17:38:25","224.0099","42.1","213.91","305","60.0","33"
"09/03/12 17:43:26","224.0126","36.0","213.46","236","60.0","32"
"09/03/12 17:48:26","224.015","37.5","212.5","241","60.03","32"
"09/03/12 17:53:27","224.0171","32.9","212.49","78","60.03","32"
"09/03/12 17:58:25","224.0188","20.8","213.5","28","60.07","32"
"09/03/12 18:03:26","224.0203","18.0","212.16","141","60.0","32"
"09/03/12 18:08:25","224.0215","19.5","212.3","185","60.0","31"
"09/03/12 18:13:27","224.0224","12.6","211.67","4","60.03","31"
"09/03/12 18:18:25","224.0232","12.3","212.54","7","60.03","31"
"09/03/12 18:23:25","224.0239","13.4","212.43","1","60.03","30"
"09/03/12 18:28:25","224.0243","12.0","211.75","4","60.03","30"
"09/03/12 18:33:25","224.0247","2.0","212.77","0","60.0","30"
"09/03/12 18:38:25","224.0249","0.0","212.63","0","60.0","29"
"09/03/12 18:43:25","224.0252","14.2","212.5","34","60.0","29"
"09/04/12 06:48:30","224.0266","0.0","213.53","0","60.03","18"
"09/04/12 06:53:26","224.0271","0.0","214.08","0","60.0","18"
"09/04/12 06:58:26","224.0278","14.4","214.05","15","60.07","18"
"09/04/12 07:03:25","224.0287","12.0","213.89","213","60.0","19"
"09/04/12 07:08:26","224.0298","12.2","213.63","41","60.03","19"
"09/04/12 07:13:27","224.0312","11.0","213.99","256","60.03","19"
"09/04/12 07:18:26","224.0328","30.9","214.16","144","60.03","19"
"09/04/12 07:23:25","224.0348","30.7","213.68","115","60.03","20"
"09/04/12 07:28:26","224.0371","28.5","213.92","105","60.0","20"
"09/04/12 07:33:26","224.0397","30.7","213.7","133","60.07","20"
"09/04/12 07:38:27","224.0427","45.2","214.25","214","60.03","21"
"09/04/12 07:43:27","224.0459","36.8","213.65","327","60.03","22"
"09/04/12 07:48:26","224.0494","48.3","214.45","176","60.03","22"
"09/04/12 07:53:26","224.0532","46.0","212.76","385","60.03","23"
"09/04/12 07:58:27","224.0571","46.2","213.52","210","60.03","24"
"09/04/12 08:03:27","224.061","46.5","214.5","79","60.07","24"
"09/04/12 08:08:26","224.0649","41.6","214.15","384","60.03","25"
"09/04/12 08:13:25","224.0688","49.8","214.23","356","60.0","25"
"09/04/12 08:18:25","224.0727","56.4","214.35","350","60.03","26"
"09/04/12 08:23:25","224.077","60.2","214.13","403","60.03","26"
"09/04/12 08:28:26","224.0814","76.3","215.42","381","60.03","27"
"09/04/12 08:33:27","224.0883","89.6","215.56","431","60.03","28"
"09/04/12 08:38:26","224.0953","93.4","215.26","454","60.03","28"
"09/04/12 08:43:25","224.1028","97.8","215.95","472","60.03","29"
"09/04/12 08:48:26","224.1106","102.2","215.77","488","60.0","29"
"09/04/12 08:53:27","224.1187","106.3","215.85","506","60.03","30"
"09/04/12 08:58:25","224.1271","110.0","215.49","521","60.03","31"
"09/04/12 09:03:26","224.1359","113.8","216.11","535","60.03","31"
"09/04/12 09:08:26","224.1448","117.3","216.37","552","60.03","32"
"09/04/12 09:13:26","224.1541","120.5","215.86","569","60.03","32"
"09/04/12 09:18:27","224.1637","124.5","215.89","585","60.03","33"
"09/04/12 09:23:26","224.1735","127.2","215.33","597","60.0","34"
"09/04/12 09:28:27","224.1835","130.8","215.1","615","60.03","35"
"09/04/12 09:33:25","224.1937","133.0","215.97","625","60.03","36"
"09/04/12 09:38:25","224.2042","136.1","216.4","633","60.0","36"
"09/04/12 09:43:26","224.215","139.2","215.64","646","60.0","37"
"09/04/12 09:48:27","224.2258","141.5","215.65","654","60.0","38"
"09/04/12 09:53:25","224.2369","143.5","216.01","672","60.03","39"
"09/04/12 09:58:26","224.2482","147.1","214.94","682","60.0","39"
"09/04/12 10:03:26","224.2598","150.2","215.05","700","60.0","40"
"09/04/12 10:08:26","224.2716","154.1","215.15","714","60.03","40"
"09/04/12 10:13:26","224.2837","156.5","216.29","720","60.0","40"
"09/04/12 10:18:26","224.296","160.2","216.6","731","60.03","40"
"09/04/12 10:23:27","224.3087","162.9","216.59","748","60.03","40"
"09/04/12 10:28:26","224.3214","164.9","216.96","760","60.03","40"
"09/04/12 10:33:26","224.3344","168.1","216.39","771","60.0","40"
"09/04/12 10:38:27","224.3476","169.7","215.82","780","60.03","40"
"09/04/12 10:43:26","224.3608","170.3","215.46","782","60.0","40"
"09/04/12 10:48:25","224.3741","172.6","215.86","791","60.0","41"
"09/04/12 10:53:25","224.3876","174.5","217.54","792","60.03","41"
"09/04/12 10:58:26","224.4012","175.4","217.17","808","60.03","42"
"09/04/12 11:03:25","224.415","176.7","217.63","800","60.03","42"
"09/04/12 11:08:26","224.4289","179.5","217.61","815","60.03","43"
"09/04/12 11:13:26","224.4429","181.2","217.99","825","60.0","43"
"09/04/12 11:18:26","224.4571","182.3","218.01","830","60.0","43"
"09/04/12 11:23:26","224.4714","183.6","217.19","836","60.0","43"
"09/04/12 11:28:26","224.4858","185.7","216.41","844","60.0","43"
"09/04/12 11:33:27","224.5003","185.3","216.74","845","60.0","43"
"09/04/12 11:38:26","224.5148","186.7","216.82","847","60.0","44"
"09/04/12 11:43:26","224.5294","188.2","216.95","849","60.03","44"
"09/04/12 11:48:26","224.544","189.2","216.79","859","60.03","44"
"09/04/12 11:53:26","224.5589","191.1","217.09","870","60.0","44"
"09/04/12 11:58:25","224.5736","190.5","217.63","865","60.03","44"
"09/04/12 12:03:26","224.5885","191.7","216.65","878","60.03","44"
"09/04/12 12:08:26","224.6034","192.1","217.11","875","60.03","44"
"09/04/12 12:13:25","224.6183","192.6","217.82","867","60.03","44"
"09/04/12 12:18:27","224.6334","193.1","216.84","874","60.0","44"
"09/04/12 12:23:27","224.6485","193.3","216.93","876","60.03","44"
"09/04/12 12:28:27","224.6636","194.3","217.66","881","60.0","44"
"09/04/12 12:33:25","224.6787","196.0","217.58","885","60.0","44"
"09/04/12 12:38:26","224.6939","195.1","218.12","884","60.03","43"
"09/04/12 12:43:26","224.7092","195.6","216.55","893","60.0","43"
"09/04/12 12:48:27","224.7237","195.9","216.69","895","60.03","43"
"09/04/12 12:53:25","224.736","141.9","215.24","664","60.03","43"
"09/04/12 12:58:26","224.7473","118.0","215.22","557","60.03","42"
"09/04/12 13:03:27","224.7607","191.7","217.41","874","60.03","42"
"09/04/12 13:08:27","224.774","150.4","216.85","694","60.03","42"
"09/04/12 13:13:26","224.7887","195.8","217.46","894","60.0","42"
"09/04/12 13:18:26","224.8039","194.8","217.18","884","60.0","43"
"09/04/12 13:23:26","224.819","192.6","216.53","879","60.03","43"
"09/04/12 13:28:25","224.8339","189.3","217.11","863","60.03","43"
"09/04/12 13:33:26","224.8486","187.1","216.76","850","60.0","43"
"09/04/12 13:38:26","224.8631","184.6","216.72","840","60.03","43"
"09/04/12 13:43:26","224.8775","183.4","216.49","837","60.03","43"
"09/04/12 13:48:27","224.8917","181.5","216.38","824","60.0","43"
"09/04/12 13:53:27","224.9057","179.7","217.35","815","60.03","43"
"09/04/12 13:58:26","224.9197","179.3","217.31","813","60.03","43"
"09/04/12 14:03:26","224.9336","177.5","217.25","808","60.03","43"
"09/04/12 14:08:26","224.9474","176.3","217.2","806","60.0","43"
"09/04/12 14:13:27","224.9611","174.4","217.48","794","60.03","43"
"09/04/12 14:18:27","224.9746","169.7","217.0","773","60.0","43"
"09/04/12 14:23:27","224.988","170.7","216.94","783","60.0","43"
"09/04/12 14:28:27","225.0012","168.9","215.93","777","60.03","42"
"09/04/12 14:33:27","225.0144","166.7","216.1","769","60.0","42"
"09/04/12 14:38:25","225.0272","165.5","216.35","760","60.03","42"
"09/04/12 14:43:27","225.0401","162.9","216.32","749","60.03","41"
"09/04/12 14:48:25","225.0526","159.7","216.48","735","60.03","41"
"09/04/12 14:53:26","225.065","157.6","216.92","723","60.0","40"
"09/04/12 14:58:27","225.0772","155.0","216.51","713","60.0","40"
"09/04/12 15:03:26","225.0892","152.2","215.92","702","60.03","40"
"09/04/12 15:08:27","225.1009","149.0","215.1","696","60.0","39"
"09/04/12 15:13:27","225.1125","146.7","215.35","684","60.03","39"
"09/04/12 15:18:25","225.1238","143.7","215.79","671","60.0","39"
"09/04/12 15:23:25","225.1349","140.9","215.5","658","60.0","38"
"09/04/12 15:28:26","225.1457","137.6","216.17","637","60.03","38"
"09/04/12 15:33:27","225.1564","134.6","215.31","632","60.0","38"
"09/04/12 15:38:27","225.1667","131.4","215.2","618","60.0","38"
"09/04/12 15:43:26","225.1768","128.3","215.53","602","60.03","37"
"09/04/12 15:48:26","225.1866","124.0","214.74","587","60.0","37"
"09/04/12 15:53:26","225.1962","121.4","215.7","575","60.0","36"
"09/04/12 15:58:26","225.2042","36.8","214.32","96","60.0","36"
"09/04/12 16:03:27","225.2133","117.3","216.01","557","60.0","36"
"09/04/12 16:08:25","225.2221","112.3","216.56","529","60.0","35"
"09/04/12 16:13:27","225.2284","109.9","215.54","522","60.03","34"
"09/04/12 16:18:27","225.2367","103.1","214.49","499","60.0","34"
"09/04/12 16:23:25","225.2444","98.0","214.7","476","60.0","34"
"09/04/12 16:28:25","225.2518","93.3","214.8","450","60.03","33"
"09/04/12 16:33:27","225.259","88.8","214.23","437","60.03","33"
"09/04/12 16:38:25","225.2658","85.1","214.86","418","60.03","32"
"09/04/12 16:43:27","225.2723","80.6","214.32","396","60.0","32"
"09/04/12 16:48:27","225.2783","75.9","214.44","379","60.03","32"
"09/04/12 16:53:27","225.284","72.0","214.45","361","60.03","32"
"09/04/12 16:58:26","225.2894","67.9","215.46","341","60.0","32"
"09/04/12 17:03:26","225.2945","64.0","214.96","326","60.0","31"
"09/04/12 17:08:27","225.299","53.8","213.94","202","60.03","31"
"09/04/12 17:13:27","225.3029","46.5","214.88","224","60.0","30"